Lancaster, PA

9:56 AM EDT on August 27, 2016 (GMT -0400)
Lancaster

Weather History for KLNS - March, 2012

Change the Weather History Date:

Saturday, March 31, 2012

  Actual Average Record
Temperature  
Mean Temperature 44 °F -  
Max Temperature 45 °F 59 °F 83 °F (1986)
Min Temperature 42 °F 38 °F 25 °F (1991)
Degree Days  
Heating Degree Days 21    
Moisture  
Dew Point 40 °F    
Average Humidity 87    
Maximum Humidity 93    
Minimum Humidity 66    
Precipitation  
Precipitation 0.49 in - - ()
Sea Level Pressure  
Sea Level Pressure 29.86 in    
Wind  
Wind Speed 8 mph (East)    
Max Wind Speed 13 mph    
Max Gust Speed -    
Visibility 5 miles    
Events Rain , Thunderstorm    
Averages and records for this station are not official NWS values.
T = Trace of Precipitation, MM = Missing Value Source: NWS Daily Summary

Daily Weather History Graph

Daily Weather History Graph

Search for Another Location

Airport or City:

Trip Planner

Search our weather history database for the weather conditions in past years. The results will help you decide how hot, cold, wet, or windy it might be!

Date:

Astronomy

Mar. 31, 2012 Rise Set
Actual Time 6:49 AM EDT 7:29 PM EDT
Civil Twilight 6:22 AM EDT 7:56 PM EDT
Nautical Twilight 5:50 AM EDT 8:28 PM EDT
Astronomical Twilight 5:17 AM EDT 9:02 PM EDT
Moon 12:54 PM EDT (3/31) 2:45 AM EDT (3/31)
Length of Visible Light 13h 33m
Length of Day
12h 39m
First Quarter, 59% of the Moon is Illuminated
Mar 31
First Quarter
Apr 6
Full
Apr 13
Last Quarter
Apr 21
New
Apr 29
First Quarter

Hourly Weather History & Observations

Time (EDT) Temp. Windchill Dew Point Humidity Pressure Visibility Wind Dir Wind Speed Gust Speed Precip Events Conditions
12:05 AM 46.4 °F 45.2 °F 35.6 °F 66% 29.93 in 10.0 mi North 3.5 mph - N/A   Overcast
12:53 AM 44.1 °F 38.1 °F 39.0 °F 82% 29.89 in 2.5 mi SE 11.5 mph - 0.11 in Rain Heavy Rain
1:00 AM 42.8 °F 36.2 °F 39.2 °F 87% 29.87 in 2.5 mi SE 12.7 mph - 0.03 in Rain Heavy Rain
1:07 AM 42.8 °F 38.0 °F 39.2 °F 87% 29.87 in 3.0 mi SE 8.1 mph - 0.05 in Rain Rain
1:45 AM 42.8 °F 38.0 °F 41.0 °F 93% 29.87 in 2.5 mi SE 8.1 mph - 0.17 in Rain Heavy Rain
1:53 AM 43.0 °F 37.7 °F 41.0 °F 93% 29.87 in 2.5 mi SE 9.2 mph - 0.20 in Rain Heavy Rain
2:00 AM 42.8 °F 37.0 °F 41.0 °F 93% 29.84 in 3.0 mi ESE 10.4 mph - 0.02 in Rain , Thunderstorm Rain
2:17 AM 44.6 °F 40.2 °F 41.0 °F 87% 29.85 in 4.0 mi SE 8.1 mph - 0.04 in Rain Rain
2:26 AM 44.6 °F 40.7 °F 41.0 °F 87% 29.85 in 4.0 mi SE 6.9 mph - 0.06 in Rain Rain
2:41 AM 44.6 °F 39.2 °F 41.0 °F 87% 29.82 in 2.5 mi ESE 10.4 mph - 0.10 in Rain Heavy Rain
2:53 AM 44.1 °F 40.8 °F 42.1 °F 93% 29.84 in 3.0 mi ESE 5.8 mph - 0.13 in Rain Rain
3:02 AM 44.6 °F 40.2 °F 42.8 °F 93% 29.82 in 4.0 mi ESE 8.1 mph - 0.01 in Rain Light Rain
3:06 AM 44.6 °F 40.2 °F 42.8 °F 93% 29.82 in 5.0 mi ESE 8.1 mph - 0.01 in Rain Light Rain
3:53 AM 44.1 °F 40.8 °F 42.1 °F 93% 29.82 in 5.0 mi NE 5.8 mph - 0.04 in Rain Light Rain
4:23 AM 44.6 °F 40.7 °F 41.0 °F 87% 29.81 in 7.0 mi ESE 6.9 mph - 0.00 in   Overcast
4:53 AM 44.1 °F 39.0 °F 39.9 °F 85% 29.80 in 8.0 mi ESE 9.2 mph - 0.00 in   Overcast
5:53 AM 43.0 °F 38.2 °F 39.9 °F 89% 29.80 in 6.0 mi East 8.1 mph - N/A   Overcast
6:53 AM 43.0 °F 38.2 °F 39.9 °F 89% 29.80 in 5.0 mi ESE 8.1 mph - N/A   Overcast
8:53 AM 42.1 °F 36.1 °F 39.0 °F 89% 29.83 in 3.0 mi East 10.4 mph - N/A   Overcast
9:10 AM 42.8 °F 38.0 °F 39.2 °F 87% 29.83 in 2.0 mi East 8.1 mph - N/A   Overcast
9:19 AM 42.8 °F 38.6 °F 39.2 °F 87% 29.83 in 1.5 mi East 6.9 mph - N/A   Overcast
9:53 AM 42.1 °F 37.1 °F 39.9 °F 92% 29.83 in 1.2 mi East 8.1 mph - N/A   Overcast
10:53 AM 43.0 °F 38.2 °F 39.9 °F 89% 29.84 in 1.5 mi ENE 8.1 mph - 0.00 in Rain Light Rain
11:18 AM 42.8 °F 38.0 °F 41.0 °F 93% 29.84 in 2.5 mi NE 8.1 mph - 0.00 in   Overcast
11:25 AM 42.8 °F 37.5 °F 39.2 °F 87% 29.84 in 3.0 mi ENE 9.2 mph - 0.00 in   Overcast
11:53 AM 44.1 °F 39.0 °F 41.0 °F 89% 29.84 in 5.0 mi ENE 9.2 mph - 0.00 in   Overcast
12:53 PM 44.1 °F 39.0 °F 39.9 °F 85% 29.84 in 10.0 mi ENE 9.2 mph - 0.01 in   Overcast
1:08 PM 44.6 °F 39.7 °F 41.0 °F 87% 29.83 in 10.0 mi NE 9.2 mph - N/A   Overcast
1:53 PM 45.0 °F 40.6 °F 39.9 °F 82% 29.85 in 10.0 mi ENE 8.1 mph - N/A   Overcast
2:53 PM 44.1 °F 39.5 °F 39.9 °F 85% 29.84 in 10.0 mi ENE 8.1 mph - N/A   Overcast
3:53 PM 45.0 °F 40.6 °F 39.9 °F 82% 29.86 in 8.0 mi NNE 8.1 mph - N/A   Overcast
4:53 PM 45.0 °F 40.6 °F 39.9 °F 82% 29.86 in 7.0 mi NE 8.1 mph - N/A   Overcast
5:53 PM 44.1 °F 39.0 °F 39.9 °F 85% 29.87 in 7.0 mi NE 9.2 mph - N/A   Overcast
6:53 PM 43.0 °F 38.2 °F 39.0 °F 86% 29.88 in 6.0 mi NE 8.1 mph - N/A   Overcast
7:53 PM 43.0 °F 38.8 °F 39.0 °F 86% 29.89 in 6.0 mi NE 6.9 mph - N/A   Overcast
8:53 PM 43.0 °F 40.3 °F 39.0 °F 86% 29.91 in 5.0 mi NE 4.6 mph - N/A   Overcast
9:26 PM 42.8 °F - 39.2 °F 87% 29.91 in 5.0 mi Calm Calm - N/A   Overcast
9:53 PM 43.0 °F 41.3 °F 39.9 °F 89% 29.92 in 5.0 mi ENE 3.5 mph - N/A   Overcast
10:23 PM 42.8 °F 41.1 °F 39.2 °F 87% 29.91 in 4.0 mi ESE 3.5 mph - N/A   Overcast
10:38 PM 42.8 °F 41.1 °F 39.2 °F 87% 29.91 in 6.0 mi East 3.5 mph - N/A   Overcast
10:53 PM 43.0 °F 40.3 °F 39.0 °F 86% 29.92 in 5.0 mi East 4.6 mph - N/A   Overcast
11:53 PM 43.0 °F 40.3 °F 39.0 °F 86% 29.92 in 6.0 mi ESE 4.6 mph - N/A   Overcast